Time,TemperatureF,DewpointF,PressureIn,WindDirection,WindDirectionDegrees,WindSpeedMPH,WindSpeedGustMPH,Humidity,HourlyPrecipIn,Conditions,Clouds,dailyrainin,SoftwareType,DateUTC
2013-07-07 00:01:00,75.9,44.0,29.71,WSW,256,0.0,0.0,32,0.00,,---,0.00,VWS V13.01,2013-07-07 04:01:00,
2013-07-07 00:02:00,75.7,43.8,29.71,WSW,256,0.0,0.0,32,0.00,,---,0.00,VWS V13.01,2013-07-07 04:02:00,
2013-07-07 00:03:00,75.7,43.8,29.71,WSW,256,0.0,0.0,32,0.00,,---,0.00,VWS V13.01,2013-07-07 04:03:00,
2013-07-07 00:09:00,75.7,43.8,29.71,WSW,256,0.0,0.0,32,0.00,,---,0.00,VWS V13.01,2013-07-07 04:09:00,
2013-07-07 00:14:00,75.7,43.8,29.71,WSW,256,0.0,0.0,32,0.00,,---,0.00,VWS V13.01,2013-07-07 04:14:00,
2013-07-07 00:19:00,75.7,43.8,29.71,WSW,256,0.0,0.0,32,0.00,,---,0.00,VWS V13.01,2013-07-07 04:19:00,
2013-07-07 00:24:00,75.6,43.7,29.71,WSW,256,0.0,0.0,32,0.00,,---,0.00,VWS V13.01,2013-07-07 04:24:00,
2013-07-07 00:29:00,75.6,43.7,29.71,WSW,256,0.0,0.0,32,0.00,,---,0.00,VWS V13.01,2013-07-07 04:29:00,
2013-07-07 00:34:00,75.6,43.7,29.71,WSW,256,0.0,0.0,32,0.00,,---,0.00,VWS V13.01,2013-07-07 04:34:00,
2013-07-07 00:39:00,75.4,43.5,29.71,WSW,256,0.0,0.0,32,0.00,,---,0.00,VWS V13.01,2013-07-07 04:39:00,
2013-07-07 00:44:00,75.4,43.5,29.71,WSW,256,0.0,0.0,32,0.00,,---,0.00,VWS V13.01,2013-07-07 04:44:00,
2013-07-07 00:49:00,75.4,43.5,29.71,WSW,256,0.0,0.0,32,0.00,,---,0.00,VWS V13.01,2013-07-07 04:49:00,
2013-07-07 00:55:00,75.2,43.3,29.71,WSW,256,0.0,0.0,32,0.00,,---,0.00,VWS V13.01,2013-07-07 04:55:00,
2013-07-07 01:00:00,75.2,43.3,29.71,WSW,256,0.0,0.0,32,0.00,,---,0.00,VWS V13.01,2013-07-07 05:00:00,
2013-07-07 01:05:00,75.0,43.2,29.71,WSW,256,0.0,0.0,32,0.00,,---,0.00,VWS V13.01,2013-07-07 05:05:00,
2013-07-07 01:10:00,74.7,42.9,29.71,WSW,256,0.0,0.0,32,0.00,,---,0.00,VWS V13.01,2013-07-07 05:10:00,
2013-07-07 01:15:00,74.3,43.4,29.71,WSW,256,0.0,0.0,33,0.00,,---,0.00,VWS V13.01,2013-07-07 05:15:00,
2013-07-07 01:20:00,74.3,43.4,29.71,WSW,256,0.0,0.0,33,0.00,,---,0.00,VWS V13.01,2013-07-07 05:20:00,
2013-07-07 01:25:00,74.1,43.2,29.71,WSW,256,0.0,0.0,33,0.00,,---,0.00,VWS V13.01,2013-07-07 05:25:00,
2013-07-07 01:30:00,73.9,43.0,29.71,WSW,256,0.0,0.0,33,0.00,,---,0.00,VWS V13.01,2013-07-07 05:30:00,
2013-07-07 01:35:00,73.9,43.8,29.71,WSW,256,0.0,0.0,34,0.00,,---,0.00,VWS V13.01,2013-07-07 05:35:00,
2013-07-07 01:40:00,73.9,43.8,29.71,WSW,256,0.0,0.0,34,0.00,,---,0.00,VWS V13.01,2013-07-07 05:40:00,
2013-07-07 01:46:00,73.9,43.8,29.71,WSW,256,0.0,0.0,34,0.00,,---,0.00,VWS V13.01,2013-07-07 05:46:00,
2013-07-07 01:51:00,73.8,43.7,29.71,WSW,256,0.0,0.0,34,0.00,,---,0.00,VWS V13.01,2013-07-07 05:51:00,
2013-07-07 01:56:00,73.8,44.4,29.71,WSW,256,0.0,0.0,35,0.00,,---,0.00,VWS V13.01,2013-07-07 05:56:00,
2013-07-07 02:01:00,73.8,44.4,29.71,WSW,256,0.0,0.0,35,0.00,,---,0.00,VWS V13.01,2013-07-07 06:01:00,
2013-07-07 02:06:00,73.8,44.4,29.71,WSW,256,0.0,0.0,35,0.00,,---,0.00,VWS V13.01,2013-07-07 06:06:00,
2013-07-07 02:11:00,73.8,44.4,29.71,WSW,256,0.0,0.0,35,0.00,,---,0.00,VWS V13.01,2013-07-07 06:11:00,
2013-07-07 02:16:00,73.6,44.3,29.71,WSW,256,0.0,0.0,35,0.00,,---,0.00,VWS V13.01,2013-07-07 06:16:00,
2013-07-07 02:21:00,73.6,44.3,29.71,WSW,256,0.0,0.0,35,0.00,,---,0.00,VWS V13.01,2013-07-07 06:21:00,
2013-07-07 02:26:00,73.6,44.3,29.71,WSW,256,0.0,0.0,35,0.00,,---,0.00,VWS V13.01,2013-07-07 06:26:00,
2013-07-07 02:31:00,73.6,44.3,29.71,WSW,256,0.0,0.0,35,0.00,,---,0.00,VWS V13.01,2013-07-07 06:31:00,
2013-07-07 02:37:00,73.6,44.3,29.71,WSW,256,0.0,0.0,35,0.00,,---,0.00,VWS V13.01,2013-07-07 06:37:00,
2013-07-07 02:42:00,73.6,44.3,29.71,WSW,256,0.0,0.0,35,0.00,,---,0.00,VWS V13.01,2013-07-07 06:42:00,
2013-07-07 02:47:00,73.4,44.1,29.71,WSW,256,0.0,0.0,35,0.00,,---,0.00,VWS V13.01,2013-07-07 06:47:00,
2013-07-07 02:50:00,73.4,44.1,29.71,WSW,256,0.0,0.0,35,0.00,,---,0.00,VWS V13.01,2013-07-07 06:50:00,
2013-07-07 02:55:00,73.2,44.0,29.71,WSW,256,0.0,0.0,35,0.00,,---,0.00,VWS V13.01,2013-07-07 06:55:00,
2013-07-07 03:00:00,73.2,44.7,29.71,WSW,256,0.0,0.0,36,0.00,,---,0.00,VWS V13.01,2013-07-07 07:00:00,
2013-07-07 03:05:00,73.2,44.7,29.71,WSW,256,0.0,0.0,36,0.00,,---,0.00,VWS V13.01,2013-07-07 07:05:00,
2013-07-07 03:10:00,73.0,44.5,29.71,WSW,256,0.0,0.0,36,0.00,,---,0.00,VWS V13.01,2013-07-07 07:10:00,
2013-07-07 03:15:00,73.0,44.5,29.71,WSW,256,0.0,0.0,36,0.00,,---,0.00,VWS V13.01,2013-07-07 07:15:00,
2013-07-07 03:20:00,73.0,44.5,29.71,WSW,256,0.0,0.0,36,0.00,,---,0.00,VWS V13.01,2013-07-07 07:20:00,
2013-07-07 03:25:00,73.0,44.5,29.71,WSW,256,0.0,0.0,36,0.00,,---,0.00,VWS V13.01,2013-07-07 07:25:00,
2013-07-07 03:30:00,73.0,44.5,29.71,WSW,256,0.0,0.0,36,0.00,,---,0.00,VWS V13.01,2013-07-07 07:30:00,
2013-07-07 03:36:00,73.0,44.5,29.71,WSW,256,0.0,0.0,36,0.00,,---,0.00,VWS V13.01,2013-07-07 07:36:00,
2013-07-07 03:41:00,73.0,44.5,29.71,WSW,256,0.0,0.0,36,0.00,,---,0.00,VWS V13.01,2013-07-07 07:41:00,
2013-07-07 03:46:00,73.0,44.5,29.68,WSW,256,0.0,0.0,36,0.00,,---,0.00,VWS V13.01,2013-07-07 07:46:00,
2013-07-07 03:51:00,72.9,44.4,29.68,WSW,256,0.0,0.0,36,0.00,,---,0.00,VWS V13.01,2013-07-07 07:51:00,
2013-07-07 03:56:00,72.9,44.4,29.68,WSW,256,0.0,0.0,36,0.00,,---,0.00,VWS V13.01,2013-07-07 07:56:00,
2013-07-07 04:01:00,72.9,44.4,29.68,WSW,256,0.0,0.0,36,0.00,,---,0.00,VWS V13.01,2013-07-07 08:01:00,
2013-07-07 04:06:00,72.9,44.4,29.68,WSW,256,0.0,0.0,36,0.00,,---,0.00,VWS V13.01,2013-07-07 08:06:00,
2013-07-07 04:11:00,72.7,44.9,29.68,WSW,256,0.0,0.0,37,0.00,,---,0.00,VWS V13.01,2013-07-07 08:11:00,
2013-07-07 04:16:00,72.7,44.9,29.68,WSW,256,0.0,0.0,37,0.00,,---,0.00,VWS V13.01,2013-07-07 08:16:00,
2013-07-07 04:21:00,72.7,44.9,29.68,WSW,256,0.0,0.0,37,0.00,,---,0.00,VWS V13.01,2013-07-07 08:21:00,
2013-07-07 04:26:00,72.7,44.9,29.68,WSW,256,0.0,0.0,37,0.00,,---,0.00,VWS V13.01,2013-07-07 08:26:00,
2013-07-07 04:32:00,72.9,45.1,29.68,WSW,256,0.0,0.0,37,0.00,,---,0.00,VWS V13.01,2013-07-07 08:32:00,
2013-07-07 04:37:00,72.9,45.1,29.68,WSW,256,0.0,0.0,37,0.00,,---,0.00,VWS V13.01,2013-07-07 08:37:00,
2013-07-07 04:42:00,72.7,44.9,29.68,WSW,256,0.0,0.0,37,0.00,,---,0.00,VWS V13.01,2013-07-07 08:42:00,
2013-07-07 04:47:00,72.7,44.9,29.68,WSW,256,0.0,0.0,37,0.00,,---,0.00,VWS V13.01,2013-07-07 08:47:00,
2013-07-07 04:52:00,72.7,44.9,29.68,WSW,256,0.0,0.0,37,0.00,,---,0.00,VWS V13.01,2013-07-07 08:52:00,
2013-07-07 04:57:00,72.7,44.9,29.68,WSW,256,0.0,0.0,37,0.00,,---,0.00,VWS V13.01,2013-07-07 08:57:00,
2013-07-07 05:02:00,72.5,44.8,29.68,WSW,256,0.0,0.0,37,0.00,,---,0.00,VWS V13.01,2013-07-07 09:02:00,
2013-07-07 05:07:00,72.5,44.8,29.68,WSW,256,0.0,0.0,37,0.00,,---,0.00,VWS V13.01,2013-07-07 09:07:00,
2013-07-07 05:12:00,72.5,44.8,29.68,WSW,256,0.0,0.0,37,0.00,,---,0.00,VWS V13.01,2013-07-07 09:12:00,
2013-07-07 05:17:00,72.5,44.8,29.68,WSW,256,0.0,0.0,37,0.00,,---,0.00,VWS V13.01,2013-07-07 09:17:00,
2013-07-07 05:23:00,72.5,44.8,29.68,WSW,256,0.0,0.0,37,0.00,,---,0.00,VWS V13.01,2013-07-07 09:23:00,
2013-07-07 05:28:00,72.3,44.6,29.68,WSW,256,0.0,0.0,37,0.00,,---,0.00,VWS V13.01,2013-07-07 09:28:00,
2013-07-07 05:33:00,72.3,44.6,29.68,WSW,256,0.0,0.0,37,0.00,,---,0.00,VWS V13.01,2013-07-07 09:33:00,
2013-07-07 05:38:00,72.3,44.6,29.68,WSW,256,0.0,0.0,37,0.00,,---,0.00,VWS V13.01,2013-07-07 09:38:00,
2013-07-07 05:43:00,72.3,44.6,29.68,WSW,256,0.0,0.0,37,0.00,,---,0.00,VWS V13.01,2013-07-07 09:43:00,
2013-07-07 05:48:00,72.3,44.6,29.68,WSW,256,0.0,0.0,37,0.00,,---,0.00,VWS V13.01,2013-07-07 09:48:00,
2013-07-07 05:53:00,72.3,44.6,29.68,WSW,256,0.0,0.0,37,0.00,,---,0.00,VWS V13.01,2013-07-07 09:53:00,
2013-07-07 05:58:00,72.3,45.3,29.68,WSW,256,0.0,0.0,38,0.00,,---,0.00,VWS V13.01,2013-07-07 09:58:00,
2013-07-07 06:03:00,72.5,45.5,29.68,WSW,256,0.0,0.0,38,0.00,,---,0.00,VWS V13.01,2013-07-07 10:03:00,
2013-07-07 06:09:00,72.5,45.5,29.68,WSW,256,0.0,0.0,38,0.00,,---,0.00,VWS V13.01,2013-07-07 10:09:00,
2013-07-07 06:14:00,72.5,45.5,29.68,WSW,256,0.0,0.0,38,0.00,,---,0.00,VWS V13.01,2013-07-07 10:14:00,
2013-07-07 06:19:00,72.7,45.6,29.68,WSW,256,0.0,0.0,38,0.00,,---,0.00,VWS V13.01,2013-07-07 10:19:00,
2013-07-07 06:24:00,72.9,45.8,29.68,WSW,256,0.0,0.0,38,0.00,,---,0.00,VWS V13.01,2013-07-07 10:24:00,
2013-07-07 06:29:00,72.9,45.8,29.68,WSW,256,0.0,0.0,38,0.00,,---,0.00,VWS V13.01,2013-07-07 10:29:00,
2013-07-07 06:34:00,73.0,46.0,29.68,WSW,256,0.0,0.0,38,0.00,,---,0.00,VWS V13.01,2013-07-07 10:34:00,
2013-07-07 06:39:00,73.2,46.1,29.68,WSW,256,0.0,0.0,38,0.00,,---,0.00,VWS V13.01,2013-07-07 10:39:00,
2013-07-07 06:44:00,73.6,46.4,29.68,WSW,256,0.0,0.0,38,0.00,,---,0.00,VWS V13.01,2013-07-07 10:44:00,
2013-07-07 06:49:00,73.8,47.3,29.68,WSW,256,0.0,0.0,39,0.00,,---,0.00,VWS V13.01,2013-07-07 10:49:00,
2013-07-07 06:54:00,74.3,47.8,29.68,WSW,256,0.0,0.0,39,0.00,,---,0.00,VWS V13.01,2013-07-07 10:54:00,
2013-07-07 07:00:00,74.7,48.1,29.68,WSW,256,0.0,0.0,39,0.00,,---,0.00,VWS V13.01,2013-07-07 11:00:00,
2013-07-07 07:05:00,75.0,48.4,29.68,WSW,256,0.0,0.0,39,0.00,,---,0.00,VWS V13.01,2013-07-07 11:05:00,
2013-07-07 07:10:00,75.4,48.0,29.68,WSW,256,0.0,0.0,38,0.00,,---,0.00,VWS V13.01,2013-07-07 11:10:00,
2013-07-07 07:15:00,75.7,47.7,29.68,WSW,257,0.0,0.0,37,0.00,,---,0.00,VWS V13.01,2013-07-07 11:15:00,
2013-07-07 07:20:00,76.3,47.4,29.68,West,259,0.0,0.0,36,0.00,,---,0.00,VWS V13.01,2013-07-07 11:20:00,
2013-07-07 07:25:00,76.5,47.5,29.68,West,260,0.0,0.0,36,0.00,,---,0.00,VWS V13.01,2013-07-07 11:25:00,
2013-07-07 07:30:00,76.6,47.0,29.71,West,260,0.0,0.0,35,0.00,,---,0.00,VWS V13.01,2013-07-07 11:30:00,
2013-07-07 07:35:00,76.8,47.1,29.71,West,260,0.0,0.0,35,0.00,,---,0.00,VWS V13.01,2013-07-07 11:35:00,
2013-07-07 07:40:00,77.0,46.5,29.71,West,260,0.0,0.0,34,0.00,,---,0.00,VWS V13.01,2013-07-07 11:40:00,
2013-07-07 07:46:00,77.0,46.5,29.68,West,260,0.0,0.0,34,0.00,,---,0.00,VWS V13.01,2013-07-07 11:46:00,
2013-07-07 07:51:00,77.0,46.5,29.68,West,260,0.0,0.0,34,0.00,,---,0.00,VWS V13.01,2013-07-07 11:51:00,
2013-07-07 07:56:00,77.2,46.7,29.68,West,260,0.0,0.0,34,0.00,,---,0.00,VWS V13.01,2013-07-07 11:56:00,
2013-07-07 08:01:00,77.4,46.0,29.71,West,260,0.0,0.0,33,0.00,,---,0.00,VWS V13.01,2013-07-07 12:01:00,
2013-07-07 08:06:00,77.5,46.2,29.71,West,260,0.0,0.0,33,0.00,,---,0.00,VWS V13.01,2013-07-07 12:06:00,
2013-07-07 08:11:00,77.7,46.3,29.71,West,261,0.0,0.0,33,0.00,,---,0.00,VWS V13.01,2013-07-07 12:11:00,
2013-07-07 08:16:00,78.6,44.6,29.71,WSW,243,0.0,0.0,30,0.00,,---,0.00,VWS V13.01,2013-07-07 12:16:00,
2013-07-07 08:21:00,80.4,43.4,29.71,WSW,253,0.0,0.0,27,0.00,,---,0.00,VWS V13.01,2013-07-07 12:21:00,
2013-07-07 08:26:00,80.8,39.6,29.71,WSW,253,0.0,0.0,23,0.00,,---,0.00,VWS V13.01,2013-07-07 12:26:00,
2013-07-07 08:31:00,81.9,41.6,29.71,NW,315,0.0,0.0,24,0.00,,---,0.00,VWS V13.01,2013-07-07 12:31:00,
2013-07-07 08:37:00,83.7,40.8,29.71,North,353,0.0,0.0,22,0.00,,---,0.00,VWS V13.01,2013-07-07 12:37:00,
2013-07-07 08:42:00,83.8,38.5,29.71,West,273,0.0,0.0,20,0.00,,---,0.00,VWS V13.01,2013-07-07 12:42:00,
2013-07-07 08:47:00,83.8,38.5,29.71,West,273,0.0,0.0,20,0.00,,---,0.00,VWS V13.01,2013-07-07 12:47:00,
2013-07-07 08:52:00,83.8,38.5,29.71,West,273,0.0,0.0,20,0.00,,---,0.00,VWS V13.01,2013-07-07 12:52:00,
2013-07-07 08:57:00,83.8,37.2,29.71,West,273,0.0,0.0,19,0.00,,---,0.00,VWS V13.01,2013-07-07 12:57:00,
2013-07-07 09:02:00,83.7,38.4,29.68,West,273,0.0,0.0,20,0.00,,---,0.00,VWS V13.01,2013-07-07 13:02:00,
2013-07-07 09:07:00,83.3,36.8,29.68,West,273,0.0,0.0,19,0.00,,---,0.00,VWS V13.01,2013-07-07 13:07:00,
2013-07-07 09:12:00,83.3,38.1,29.68,West,273,0.0,0.0,20,0.00,,---,0.00,VWS V13.01,2013-07-07 13:12:00,
2013-07-07 09:17:00,83.1,37.9,29.68,West,274,0.0,0.0,20,0.00,,---,0.00,VWS V13.01,2013-07-07 13:17:00,
2013-07-07 09:23:00,83.7,38.4,29.68,West,273,0.0,0.0,20,0.00,,---,0.00,VWS V13.01,2013-07-07 13:23:00,
2013-07-07 09:28:00,83.3,36.8,29.68,West,262,0.0,0.0,19,0.00,,---,0.00,VWS V13.01,2013-07-07 13:28:00,
2013-07-07 09:33:00,83.7,37.1,29.68,WSW,255,0.0,0.0,19,0.00,,---,0.00,VWS V13.01,2013-07-07 13:33:00,
2013-07-07 09:38:00,86.4,37.9,29.68,SW,236,0.0,0.0,18,0.00,,---,0.00,VWS V13.01,2013-07-07 13:38:00,
2013-07-07 09:43:00,86.5,38.0,29.68,WSW,257,0.0,0.0,18,0.00,,---,0.00,VWS V13.01,2013-07-07 13:43:00,
2013-07-07 09:48:00,85.3,38.4,29.68,West,262,0.0,0.0,19,0.00,,---,0.00,VWS V13.01,2013-07-07 13:48:00,
2013-07-07 09:53:00,85.1,38.2,29.68,WNW,293,0.0,0.0,19,0.00,,---,0.00,VWS V13.01,2013-07-07 13:53:00,
2013-07-07 09:58:00,86.2,37.8,29.68,West,261,0.0,0.0,18,0.00,,---,0.00,VWS V13.01,2013-07-07 13:58:00,
2013-07-07 10:03:00,85.6,37.3,29.68,SW,235,0.0,0.0,18,0.00,,---,0.00,VWS V13.01,2013-07-07 14:03:00,
2013-07-07 10:08:00,84.7,38.0,29.68,SW,228,0.0,0.0,19,0.00,,---,0.00,VWS V13.01,2013-07-07 14:08:00,
2013-07-07 10:14:00,84.6,36.4,29.68,WSW,251,0.0,0.0,18,0.00,,---,0.00,VWS V13.01,2013-07-07 14:14:00,
2013-07-07 10:19:00,84.4,37.7,29.68,WNW,284,0.0,0.0,19,0.00,,---,0.00,VWS V13.01,2013-07-07 14:19:00,
2013-07-07 10:24:00,84.4,37.7,29.68,WSW,241,0.0,0.0,19,0.00,,---,0.00,VWS V13.01,2013-07-07 14:24:00,
2013-07-07 10:29:00,84.4,37.7,29.68,WNW,299,0.0,0.0,19,0.00,,---,0.00,VWS V13.01,2013-07-07 14:29:00,
2013-07-07 10:34:00,84.6,37.8,29.68,West,274,0.0,0.0,19,0.00,,---,0.00,VWS V13.01,2013-07-07 14:34:00,
2013-07-07 10:39:00,84.6,36.4,29.68,SSE,154,0.0,0.0,18,0.00,,---,0.00,VWS V13.01,2013-07-07 14:39:00,
2013-07-07 10:44:00,84.7,38.0,29.68,WNW,288,0.0,0.0,19,0.00,,---,0.00,VWS V13.01,2013-07-07 14:44:00,
2013-07-07 10:49:00,85.1,38.2,29.68,North,9,0.0,0.0,19,0.00,,---,0.00,VWS V13.01,2013-07-07 14:49:00,
2013-07-07 10:54:00,85.1,36.9,29.68,West,280,0.0,0.0,18,0.00,,---,0.00,VWS V13.01,2013-07-07 14:54:00,
2013-07-07 11:00:00,85.3,38.4,29.68,West,275,0.0,0.0,19,0.00,,---,0.00,VWS V13.01,2013-07-07 15:00:00,
2013-07-07 11:05:00,85.1,36.9,29.68,WSW,253,0.0,0.0,18,0.00,,---,0.00,VWS V13.01,2013-07-07 15:05:00,
2013-07-07 11:10:00,85.5,37.2,29.68,WSW,247,0.0,0.0,18,0.00,,---,0.00,VWS V13.01,2013-07-07 15:10:00,
2013-07-07 11:15:00,85.5,37.2,29.68,West,270,0.0,0.0,18,0.00,,---,0.00,VWS V13.01,2013-07-07 15:15:00,
2013-07-07 11:20:00,85.6,37.3,29.68,WSW,240,0.0,0.0,18,0.00,,---,0.00,VWS V13.01,2013-07-07 15:20:00,
2013-07-07 11:25:00,85.8,34.5,29.68,NE,38,0.0,0.0,16,0.00,,---,0.00,VWS V13.01,2013-07-07 15:25:00,
2013-07-07 11:30:00,86.2,37.8,29.68,WNW,299,0.0,0.0,18,0.00,,---,0.00,VWS V13.01,2013-07-07 15:30:00,
2013-07-07 11:35:00,87.3,35.6,29.68,SSW,199,0.0,0.0,16,0.00,,---,0.00,VWS V13.01,2013-07-07 15:35:00,
2013-07-07 11:40:00,87.1,35.5,29.68,SW,215,0.0,0.0,16,0.00,,---,0.00,VWS V13.01,2013-07-07 15:40:00,
2013-07-07 11:46:00,87.1,35.5,29.65,West,278,0.0,0.0,16,0.00,,---,0.00,VWS V13.01,2013-07-07 15:46:00,
2013-07-07 11:51:00,86.9,30.2,29.65,West,271,0.0,0.0,13,0.00,,---,0.00,VWS V13.01,2013-07-07 15:51:00,
2013-07-07 11:56:00,87.1,30.3,29.65,West,276,0.0,0.0,13,0.00,,---,0.00,VWS V13.01,2013-07-07 15:56:00,
2013-07-07 12:01:00,87.1,30.3,29.65,WSW,238,0.0,0.0,13,0.00,,---,0.00,VWS V13.01,2013-07-07 16:01:00,
2013-07-07 12:06:00,87.1,30.3,29.65,North,1,0.0,0.0,13,0.00,,---,0.00,VWS V13.01,2013-07-07 16:06:00,
2013-07-07 12:11:00,87.3,30.5,29.65,NW,319,0.0,0.0,13,0.00,,---,0.00,VWS V13.01,2013-07-07 16:11:00,
2013-07-07 12:16:00,87.3,30.5,29.65,WNW,300,0.0,0.0,13,0.00,,---,0.00,VWS V13.01,2013-07-07 16:16:00,
2013-07-07 12:21:00,87.3,30.5,29.65,South,186,0.0,0.0,13,0.00,,---,0.00,VWS V13.01,2013-07-07 16:21:00,
2013-07-07 12:26:00,87.4,30.6,29.65,SE,124,0.0,0.0,13,0.00,,---,0.00,VWS V13.01,2013-07-07 16:26:00,
2013-07-07 12:31:00,87.8,30.9,29.65,SSW,206,0.0,0.0,13,0.00,,---,0.00,VWS V13.01,2013-07-07 16:31:00,
2013-07-07 12:37:00,87.8,30.9,29.65,SW,229,0.0,0.0,13,0.00,,---,0.00,VWS V13.01,2013-07-07 16:37:00,
2013-07-07 12:38:00,87.6,30.8,29.65,SW,225,0.0,0.0,13,0.00,,---,0.00,VWS V13.01,2013-07-07 16:38:00,
2013-07-07 12:43:00,87.6,30.8,29.65,SSW,196,0.0,0.0,13,0.00,,---,0.00,VWS V13.01,2013-07-07 16:43:00,
2013-07-07 12:48:00,87.8,30.9,29.65,West,261,0.0,0.0,13,0.00,,---,0.00,VWS V13.01,2013-07-07 16:48:00,
2013-07-07 12:53:00,88.2,31.2,29.65,NE,55,0.0,0.0,13,0.00,,---,0.00,VWS V13.01,2013-07-07 16:53:00,
2013-07-07 12:58:00,88.3,31.3,29.65,West,274,0.0,0.0,13,0.00,,---,0.00,VWS V13.01,2013-07-07 16:58:00,
2013-07-07 13:03:00,88.3,31.3,29.65,SSW,201,0.0,0.0,13,0.00,,---,0.00,VWS V13.01,2013-07-07 17:03:00,
2013-07-07 13:08:00,88.5,31.5,29.65,WSW,258,0.0,0.0,13,0.00,,---,0.00,VWS V13.01,2013-07-07 17:08:00,
2013-07-07 13:14:00,88.5,31.5,29.65,WNW,291,0.0,0.0,13,0.00,,---,0.00,VWS V13.01,2013-07-07 17:14:00,
2013-07-07 13:19:00,88.7,31.6,29.65,NW,310,0.0,0.0,13,0.00,,---,0.00,VWS V13.01,2013-07-07 17:19:00,
2013-07-07 13:24:00,88.9,31.7,29.65,SSE,160,0.0,0.0,13,0.00,,---,0.00,VWS V13.01,2013-07-07 17:24:00,
2013-07-07 13:29:00,88.9,31.7,29.65,WSW,254,0.0,0.0,13,0.00,,---,0.00,VWS V13.01,2013-07-07 17:29:00,
2013-07-07 13:34:00,89.2,25.6,29.65,West,277,0.0,0.0,10,0.00,,---,0.00,VWS V13.01,2013-07-07 17:34:00,
2013-07-07 13:39:00,89.8,30.5,29.65,ENE,64,0.0,0.0,12,0.00,,---,0.00,VWS V13.01,2013-07-07 17:39:00,
2013-07-07 13:44:00,89.8,30.5,29.65,West,277,0.0,0.0,12,0.00,,---,0.00,VWS V13.01,2013-07-07 17:44:00,
2013-07-07 13:49:00,89.6,30.3,29.65,NNW,331,0.0,2.7,12,0.00,,---,0.00,VWS V13.01,2013-07-07 17:49:00,
2013-07-07 13:54:00,89.4,32.2,29.65,West,280,0.0,2.7,13,0.00,,---,0.00,VWS V13.01,2013-07-07 17:54:00,
2013-07-07 13:59:00,89.4,32.2,29.65,ENE,71,0.0,2.7,13,0.00,,---,0.00,VWS V13.01,2013-07-07 17:59:00,
2013-07-07 14:05:00,89.4,32.2,29.65,South,182,0.0,0.0,13,0.00,,---,0.00,VWS V13.01,2013-07-07 18:05:00,
2013-07-07 14:10:00,89.6,30.3,29.65,WSW,240,0.0,0.0,12,0.00,,---,0.00,VWS V13.01,2013-07-07 18:10:00,
2013-07-07 14:15:00,89.6,30.3,29.62,SSW,208,0.0,0.0,12,0.00,,---,0.00,VWS V13.01,2013-07-07 18:15:00,
2013-07-07 14:20:00,89.6,30.3,29.62,WNW,301,0.0,0.0,12,0.00,,---,0.00,VWS V13.01,2013-07-07 18:20:00,
2013-07-07 14:25:00,89.8,30.5,29.62,West,275,0.0,0.0,12,0.00,,---,0.00,VWS V13.01,2013-07-07 18:25:00,
2013-07-07 14:30:00,89.6,25.9,29.62,NW,312,0.0,0.0,10,0.00,,---,0.00,VWS V13.01,2013-07-07 18:30:00,
2013-07-07 14:35:00,89.6,30.3,29.62,North,357,0.0,0.0,12,0.00,,---,0.00,VWS V13.01,2013-07-07 18:35:00,
2013-07-07 14:40:00,89.1,25.5,29.62,West,273,0.0,0.0,10,0.00,,---,0.00,VWS V13.01,2013-07-07 18:40:00,
2013-07-07 14:45:00,89.1,31.9,29.62,WNW,293,0.0,0.0,13,0.00,,---,0.00,VWS V13.01,2013-07-07 18:45:00,
2013-07-07 14:51:00,89.2,32.0,29.62,West,266,0.0,0.0,13,0.00,,---,0.00,VWS V13.01,2013-07-07 18:51:00,
2013-07-07 14:56:00,89.1,31.9,29.62,WSW,251,0.0,0.0,13,0.00,,---,0.00,VWS V13.01,2013-07-07 18:56:00,
2013-07-07 15:01:00,88.7,25.2,29.62,West,270,0.0,0.0,10,0.00,,---,0.00,VWS V13.01,2013-07-07 19:01:00,
2013-07-07 15:06:00,88.5,25.1,29.62,NW,323,0.0,0.0,10,0.00,,---,0.00,VWS V13.01,2013-07-07 19:06:00,
2013-07-07 15:11:00,88.7,31.6,29.62,West,267,0.0,0.0,13,0.00,,---,0.00,VWS V13.01,2013-07-07 19:11:00,
2013-07-07 15:16:00,88.5,31.5,29.62,SW,218,0.0,0.0,13,0.00,,---,0.00,VWS V13.01,2013-07-07 19:16:00,
2013-07-07 15:21:00,88.7,31.6,29.62,WNW,303,0.0,0.0,13,0.00,,---,0.00,VWS V13.01,2013-07-07 19:21:00,
2013-07-07 15:26:00,89.1,31.9,29.62,NW,308,0.0,0.0,13,0.00,,---,0.00,VWS V13.01,2013-07-07 19:26:00,
2013-07-07 15:31:00,89.4,32.2,29.62,WSW,238,0.0,0.0,13,0.00,,---,0.00,VWS V13.01,2013-07-07 19:31:00,
2013-07-07 15:37:00,89.4,25.8,29.62,WSW,251,0.0,0.0,10,0.00,,---,0.00,VWS V13.01,2013-07-07 19:37:00,
2013-07-07 15:42:00,89.4,32.2,29.62,West,276,0.0,0.0,13,0.00,,---,0.00,VWS V13.01,2013-07-07 19:42:00,
2013-07-07 15:47:00,89.2,25.6,29.62,South,190,0.0,0.0,10,0.00,,---,0.00,VWS V13.01,2013-07-07 19:47:00,
2013-07-07 15:52:00,89.1,31.9,29.62,NNW,328,0.0,0.0,13,0.00,,---,0.00,VWS V13.01,2013-07-07 19:52:00,
2013-07-07 15:57:00,89.1,31.9,29.62,WSW,250,0.0,0.0,13,0.00,,---,0.00,VWS V13.01,2013-07-07 19:57:00,
2013-07-07 16:02:00,89.1,31.9,29.59,SSE,155,0.0,0.0,13,0.00,,---,0.00,VWS V13.01,2013-07-07 20:02:00,
2013-07-07 16:07:00,89.1,31.9,29.59,SW,223,0.0,0.0,13,0.00,,---,0.00,VWS V13.01,2013-07-07 20:07:00,
2013-07-07 16:12:00,89.1,31.9,29.59,WSW,251,0.0,0.0,13,0.00,,---,0.00,VWS V13.01,2013-07-07 20:12:00,
2013-07-07 16:17:00,89.1,31.9,29.59,WNW,302,0.0,0.0,13,0.00,,---,0.00,VWS V13.01,2013-07-07 20:17:00,
2013-07-07 16:23:00,88.9,31.7,29.59,WSW,258,0.0,0.0,13,0.00,,---,0.00,VWS V13.01,2013-07-07 20:23:00,
2013-07-07 16:28:00,88.7,31.6,29.59,SW,226,0.0,0.0,13,0.00,,---,0.00,VWS V13.01,2013-07-07 20:28:00,
2013-07-07 16:33:00,88.5,31.5,29.59,WSW,253,0.0,0.0,13,0.00,,---,0.00,VWS V13.01,2013-07-07 20:33:00,
2013-07-07 16:38:00,88.5,31.5,29.59,West,275,0.0,0.0,13,0.00,,---,0.00,VWS V13.01,2013-07-07 20:38:00,
2013-07-07 16:43:00,88.3,31.3,29.59,WSW,243,0.0,0.0,13,0.00,,---,0.00,VWS V13.01,2013-07-07 20:43:00,
2013-07-07 16:48:00,88.2,31.2,29.59,WSW,251,0.0,0.0,13,0.00,,---,0.00,VWS V13.01,2013-07-07 20:48:00,
2013-07-07 16:53:00,87.8,30.9,29.59,NNE,29,0.0,0.0,13,0.00,,---,0.00,VWS V13.01,2013-07-07 20:53:00,
2013-07-07 16:58:00,87.4,30.6,29.59,WSW,237,0.0,0.0,13,0.00,,---,0.00,VWS V13.01,2013-07-07 20:58:00,
2013-07-07 17:03:00,87.1,30.3,29.59,NW,310,0.0,0.0,13,0.00,,---,0.00,VWS V13.01,2013-07-07 21:03:00,
2013-07-07 17:09:00,87.1,30.3,29.59,NW,310,0.0,0.0,13,0.00,,---,0.00,VWS V13.01,2013-07-07 21:09:00,
2013-07-07 17:14:00,86.4,29.8,29.59,West,278,0.0,0.0,13,0.00,,---,0.00,VWS V13.01,2013-07-07 21:14:00,
2013-07-07 17:19:00,86.2,29.6,29.59,North,8,0.0,0.0,13,0.00,,---,0.00,VWS V13.01,2013-07-07 21:19:00,
2013-07-07 17:24:00,84.0,37.4,29.59,WSW,249,0.0,0.0,19,0.00,,---,0.00,VWS V13.01,2013-07-07 21:24:00,
2013-07-07 17:29:00,81.7,36.8,29.59,West,261,0.0,0.0,20,0.00,,---,0.00,VWS V13.01,2013-07-07 21:29:00,
2013-07-07 17:34:00,81.0,39.7,29.59,WNW,284,0.0,0.0,23,0.00,,---,0.00,VWS V13.01,2013-07-07 21:34:00,
2013-07-07 17:39:00,81.0,39.7,29.59,South,180,0.0,0.0,23,0.00,,---,0.00,VWS V13.01,2013-07-07 21:39:00,
2013-07-07 17:44:00,81.5,37.8,29.59,WSW,253,0.0,0.0,21,0.00,,---,0.00,VWS V13.01,2013-07-07 21:44:00,
2013-07-07 17:49:00,82.4,38.6,29.59,WSW,249,0.0,0.0,21,0.00,,---,0.00,VWS V13.01,2013-07-07 21:49:00,
2013-07-07 17:55:00,83.1,36.6,29.59,NW,324,0.0,0.0,19,0.00,,---,0.00,VWS V13.01,2013-07-07 21:55:00,
2013-07-07 18:00:00,83.8,38.5,29.59,North,10,0.0,0.0,20,0.00,,---,0.00,VWS V13.01,2013-07-07 22:00:00,
2013-07-07 18:05:00,83.8,37.2,29.59,WSW,249,0.0,0.0,19,0.00,,---,0.00,VWS V13.01,2013-07-07 22:05:00,
2013-07-07 18:10:00,83.7,37.1,29.59,WSW,249,0.0,0.0,19,0.00,,---,0.00,VWS V13.01,2013-07-07 22:10:00,
2013-07-07 18:15:00,83.3,36.8,29.59,WSW,249,0.0,0.0,19,0.00,,---,0.00,VWS V13.01,2013-07-07 22:15:00,
2013-07-07 18:20:00,83.3,36.8,29.59,WNW,303,0.0,0.0,19,0.00,,---,0.00,VWS V13.01,2013-07-07 22:20:00,
2013-07-07 18:25:00,83.1,36.6,29.59,West,270,0.0,0.0,19,0.00,,---,0.00,VWS V13.01,2013-07-07 22:25:00,
2013-07-07 18:30:00,83.3,38.1,29.59,West,270,0.0,0.0,20,0.00,,---,0.00,VWS V13.01,2013-07-07 22:30:00,
2013-07-07 18:35:00,83.1,37.9,29.59,West,262,0.0,0.0,20,0.00,,---,0.00,VWS V13.01,2013-07-07 22:35:00,
2013-07-07 18:41:00,83.1,36.6,29.59,West,268,0.0,0.0,19,0.00,,---,0.00,VWS V13.01,2013-07-07 22:41:00,
2013-07-07 18:46:00,82.9,37.8,29.59,West,269,0.0,0.0,20,0.00,,---,0.00,VWS V13.01,2013-07-07 22:46:00,
2013-07-07 18:51:00,82.8,37.6,29.59,West,269,0.0,0.0,20,0.00,,---,0.00,VWS V13.01,2013-07-07 22:51:00,
2013-07-07 18:56:00,82.8,37.6,29.59,West,269,0.0,0.0,20,0.00,,---,0.00,VWS V13.01,2013-07-07 22:56:00,
2013-07-07 19:01:00,82.6,37.5,29.59,West,269,0.0,0.0,20,0.00,,---,0.00,VWS V13.01,2013-07-07 23:01:00,
2013-07-07 19:06:00,82.4,37.3,29.59,West,269,0.0,0.0,20,0.00,,---,0.00,VWS V13.01,2013-07-07 23:06:00,
2013-07-07 19:11:00,82.0,38.3,29.59,NW,319,0.0,0.0,21,0.00,,---,0.00,VWS V13.01,2013-07-07 23:11:00,
2013-07-07 19:16:00,82.0,38.3,29.59,NW,319,0.0,0.0,21,0.00,,---,0.00,VWS V13.01,2013-07-07 23:16:00,
2013-07-07 19:21:00,81.9,38.1,29.59,NW,319,0.0,0.0,21,0.00,,---,0.00,VWS V13.01,2013-07-07 23:21:00,
2013-07-07 19:27:00,81.7,38.0,29.59,NW,319,0.0,0.0,21,0.00,,---,0.00,VWS V13.01,2013-07-07 23:27:00,
2013-07-07 19:32:00,81.5,37.8,29.59,NW,319,0.0,0.0,21,0.00,,---,0.00,VWS V13.01,2013-07-07 23:32:00,
2013-07-07 19:37:00,81.3,38.9,29.59,NW,319,0.0,0.0,22,0.00,,---,0.00,VWS V13.01,2013-07-07 23:37:00,
2013-07-07 19:42:00,81.1,38.7,29.59,NW,319,0.0,0.0,22,0.00,,---,0.00,VWS V13.01,2013-07-07 23:42:00,
2013-07-07 19:47:00,81.0,39.7,29.59,NW,320,0.0,0.0,23,0.00,,---,0.00,VWS V13.01,2013-07-07 23:47:00,
2013-07-07 19:52:00,81.0,38.6,29.59,NW,320,0.0,0.0,22,0.00,,---,0.00,VWS V13.01,2013-07-07 23:52:00,
2013-07-07 19:57:00,81.0,38.6,29.59,NW,320,0.0,0.0,22,0.00,,---,0.00,VWS V13.01,2013-07-07 23:57:00,
2013-07-07 20:02:00,80.6,38.3,29.59,NW,320,0.0,0.0,22,0.00,,---,0.00,VWS V13.01,2013-07-08 00:02:00,
2013-07-07 20:07:00,80.4,39.3,29.59,NW,320,0.0,0.0,23,0.00,,---,0.00,VWS V13.01,2013-07-08 00:07:00,
2013-07-07 20:12:00,80.2,39.1,29.59,NW,320,0.0,0.0,23,0.00,,---,0.00,VWS V13.01,2013-07-08 00:12:00,
2013-07-07 20:18:00,80.2,39.1,29.59,NW,319,0.0,0.0,23,0.00,,---,0.00,VWS V13.01,2013-07-08 00:18:00,
2013-07-07 20:23:00,80.1,39.0,29.59,NW,320,0.0,0.0,23,0.00,,---,0.00,VWS V13.01,2013-07-08 00:23:00,
2013-07-07 20:28:00,79.9,38.8,29.59,NW,320,0.0,0.0,23,0.00,,---,0.00,VWS V13.01,2013-07-08 00:28:00,
2013-07-07 20:33:00,79.7,38.7,29.59,NW,320,0.0,0.0,23,0.00,,---,0.00,VWS V13.01,2013-07-08 00:33:00,
2013-07-07 20:38:00,79.3,38.4,29.59,NW,320,0.0,0.0,23,0.00,,---,0.00,VWS V13.01,2013-07-08 00:38:00,
2013-07-07 20:43:00,79.2,39.3,29.59,NW,320,0.0,0.0,24,0.00,,---,0.00,VWS V13.01,2013-07-08 00:43:00,
2013-07-07 20:48:00,79.0,39.2,29.59,NW,320,0.0,0.0,24,0.00,,---,0.00,VWS V13.01,2013-07-08 00:48:00,
2013-07-07 20:53:00,78.8,39.0,29.59,NW,320,0.0,0.0,24,0.00,,---,0.00,VWS V13.01,2013-07-08 00:53:00,
2013-07-07 20:58:00,78.6,39.9,29.59,NW,320,0.0,0.0,25,0.00,,---,0.00,VWS V13.01,2013-07-08 00:58:00,
2013-07-07 21:03:00,78.4,40.8,29.62,NW,320,0.0,0.0,26,0.00,,---,0.00,VWS V13.01,2013-07-08 01:03:00,
2013-07-07 21:09:00,78.3,40.6,29.62,NW,320,0.0,0.0,26,0.00,,---,0.00,VWS V13.01,2013-07-08 01:09:00,
2013-07-07 21:14:00,78.3,41.6,29.62,NW,320,0.0,0.0,27,0.00,,---,0.00,VWS V13.01,2013-07-08 01:14:00,
2013-07-07 21:19:00,78.1,41.4,29.62,NW,320,0.0,0.0,27,0.00,,---,0.00,VWS V13.01,2013-07-08 01:19:00,
2013-07-07 21:24:00,77.9,42.2,29.62,NW,320,0.0,0.0,28,0.00,,---,0.00,VWS V13.01,2013-07-08 01:24:00,
2013-07-07 21:29:00,77.9,42.2,29.62,NW,320,0.0,0.0,28,0.00,,---,0.00,VWS V13.01,2013-07-08 01:29:00,
2013-07-07 21:34:00,77.7,42.0,29.62,NW,320,0.0,0.0,28,0.00,,---,0.00,VWS V13.01,2013-07-08 01:34:00,
2013-07-07 21:39:00,77.5,41.9,29.62,NW,320,0.0,0.0,28,0.00,,---,0.00,VWS V13.01,2013-07-08 01:39:00,
2013-07-07 21:44:00,77.5,41.9,29.62,NW,320,0.0,0.0,28,0.00,,---,0.00,VWS V13.01,2013-07-08 01:44:00,
2013-07-07 21:49:00,77.4,41.7,29.62,NW,320,0.0,0.0,28,0.00,,---,0.00,VWS V13.01,2013-07-08 01:49:00,
2013-07-07 21:55:00,77.4,42.7,29.62,NW,320,0.0,0.0,29,0.00,,---,0.00,VWS V13.01,2013-07-08 01:55:00,
2013-07-07 22:00:00,77.4,43.5,29.62,NW,320,0.0,0.0,30,0.00,,---,0.00,VWS V13.01,2013-07-08 02:00:00,
2013-07-07 22:05:00,77.2,43.4,29.62,NW,320,0.0,0.0,30,0.00,,---,0.00,VWS V13.01,2013-07-08 02:05:00,
2013-07-07 22:10:00,77.2,43.4,29.62,NW,320,0.0,0.0,30,0.00,,---,0.00,VWS V13.01,2013-07-08 02:10:00,
2013-07-07 22:15:00,77.0,43.2,29.59,NW,320,0.0,0.0,30,0.00,,---,0.00,VWS V13.01,2013-07-08 02:15:00,
2013-07-07 22:20:00,76.8,43.9,29.59,NW,320,0.0,0.0,31,0.00,,---,0.00,VWS V13.01,2013-07-08 02:20:00,
2013-07-07 22:25:00,76.6,43.8,29.59,NW,320,0.0,0.0,31,0.00,,---,0.00,VWS V13.01,2013-07-08 02:25:00,
2013-07-07 22:30:00,76.5,43.6,29.57,NW,320,0.0,0.0,31,0.00,,---,0.00,VWS V13.01,2013-07-08 02:30:00,
2013-07-07 22:35:00,76.3,43.5,29.57,NW,320,0.0,0.0,31,0.00,,---,0.00,VWS V13.01,2013-07-08 02:35:00,
2013-07-07 22:40:00,76.3,43.5,29.57,NW,320,0.0,0.0,31,0.00,,---,0.00,VWS V13.01,2013-07-08 02:40:00,
2013-07-07 22:45:00,76.3,43.5,29.57,NW,320,0.0,0.0,31,0.00,,---,0.00,VWS V13.01,2013-07-08 02:45:00,
2013-07-07 22:51:00,76.1,44.1,29.57,NW,320,0.0,0.0,32,0.00,,---,0.00,VWS V13.01,2013-07-08 02:51:00,
2013-07-07 22:56:00,76.1,44.1,29.57,NW,320,0.0,0.0,32,0.00,,---,0.00,VWS V13.01,2013-07-08 02:56:00,
2013-07-07 23:01:00,76.3,44.3,29.59,NW,320,0.0,0.0,32,0.00,,---,0.00,VWS V13.01,2013-07-08 03:01:00,
2013-07-07 23:06:00,76.3,44.3,29.59,NW,320,0.0,0.0,32,0.00,,---,0.00,VWS V13.01,2013-07-08 03:06:00,
2013-07-07 23:11:00,76.3,44.3,29.59,NW,320,0.0,0.0,32,0.00,,---,0.00,VWS V13.01,2013-07-08 03:11:00,
2013-07-07 23:16:00,76.3,44.3,29.59,NW,320,0.0,0.0,32,0.00,,---,0.00,VWS V13.01,2013-07-08 03:16:00,
2013-07-07 23:21:00,76.3,44.3,29.59,NW,320,0.0,0.0,32,0.00,,---,0.00,VWS V13.01,2013-07-08 03:21:00,
2013-07-07 23:26:00,76.3,44.3,29.59,NW,320,0.0,0.0,32,0.00,,---,0.00,VWS V13.01,2013-07-08 03:26:00,
2013-07-07 23:31:00,76.3,44.3,29.59,NW,320,0.0,0.0,32,0.00,,---,0.00,VWS V13.01,2013-07-08 03:31:00,
2013-07-07 23:37:00,76.1,44.1,29.59,NW,320,0.0,0.0,32,0.00,,---,0.00,VWS V13.01,2013-07-08 03:37:00,
2013-07-07 23:42:00,76.1,44.1,29.59,NW,320,0.0,0.0,32,0.00,,---,0.00,VWS V13.01,2013-07-08 03:42:00,
2013-07-07 23:47:00,76.1,44.1,29.62,West,276,0.0,0.0,32,0.00,,---,0.00,VWS V13.01,2013-07-08 03:47:00,
2013-07-07 23:52:00,76.1,44.1,29.62,WSW,251,0.0,0.0,32,0.00,,---,0.00,VWS V13.01,2013-07-08 03:52:00,
2013-07-07 23:57:00,76.5,43.6,29.62,SW,230,0.0,0.0,31,0.00,,---,0.00,VWS V13.01,2013-07-08 03:57:00,